Flag for U.S.A. Weather past 2 weeks in Pasco, Washington, U.S.A.

Now
69 °F

Scattered clouds.


Feels Like: 69 °F
Forecast: 59 / 83 °F
Wind: 6 mph from South

Location: Tri-Cities Airport

Current Time: May 22, 2015 at 9:28:10 AM

Latest Report: May 22, 2015 at 8:53 AM


Visibility: 10 mi

Pressure: 29.83 "Hg

Humidity: 63%

Dew point: 56 °F

Location of PascoLocation

Historic Weather in Pasco — Graph

°F

Pasco temperature yesterday

Maximum temperature yesterday: 86 °F (at 2:53 PM)
Minimum temperature yesterday: 60 °F (at 5:53 AM)
Average temperature yesterday: 72 °F

Past Weeks' High & Low Weather Summary

 TemperatureHumidityPressure
High86 °F (May 21, 2:53 PM)97% (May 14, 3:53 AM)30.14 "Hg (May 14, 3:53 AM)
Low38 °F (May 8, 3:53 AM)16% (May 10, 5:53 PM)29.66 "Hg (May 15, 4:53 PM)
Average63 °F58%29.88 "Hg
* Reported May 7 7:53 AM — May 22 7:53 AM, Pasco, Weather by CustomWeather, © 2015

Note: Actual official high and low records may vary slightly from our data, if they occured in-between our weather recording intervals... More about our weather records

Advertising

Pasco weather history for previous 24 hours

 ConditionsComfort  
Time TempWeatherWind HumidityBarometerVisibility
7:53 AM
Fri, May 22
68 °FOvercast.8 mph65%29.82 "Hg10 mi
6:53 AM66 °FLight rain. Overcast.6 mph70%29.81 "Hg10 mi
5:53 AM65 °FPassing clouds.3 mph73%29.80 "Hg10 mi
4:53 AM62 °FPassing clouds.No wind80%29.79 "Hg10 mi
3:53 AM62 °FPassing clouds.5 mph80%29.79 "Hg10 mi
2:53 AM62 °FClear.No wind78%29.78 "Hg10 mi
1:53 AM64 °FClear.6 mph73%29.78 "Hg10 mi
12:53 AM66 °FClear.No wind73%29.78 "Hg10 mi
11:53 PM
Thu, May 21
65 °FClear.No wind78%29.77 "Hg10 mi
10:53 PM69 °FClear.No wind68%29.76 "Hg10 mi
9:53 PM67 °FClear.6 mph66%29.76 "Hg10 mi
8:53 PM75 °FSunny.6 mph47%29.73 "Hg10 mi
7:53 PM75 °FSunny.6 mph48%29.73 "Hg10 mi
6:53 PM77 °FSunny.7 mph45%29.72 "Hg10 mi
5:53 PM79 °FSunny.13 mph42%29.73 "Hg10 mi
4:53 PM79 °FSunny.9 mph45%29.74 "Hg10 mi
3:53 PM83 °FSunny.15 mph34%29.73 "Hg10 mi
2:53 PM86 °FSunny.6 mph29%29.75 "Hg10 mi
1:53 PM83 °FSunny.7 mph33%29.76 "Hg10 mi
12:53 PM81 °FSunny.No wind38%29.79 "Hg10 mi
11:53 AM80 °FSunny.5 mph41%29.81 "Hg10 mi
10:53 AM78 °FSunny.5 mph42%29.82 "Hg10 mi
9:53 AM73 °FSunny.No wind51%29.83 "Hg10 mi
Weather by CustomWeather, © 2015

See weather overviewHow to use our weather pages